Location: Devils Tower National Monument
(44.5904°N, 104.7201°W)
Time: 07:35:45
(UTC-07:00)

Envisat - Pass Details

Date: 29 January 2020
Orbit: 764 x 766 km, 98.1° (Epoch: 28 February)

Event Time Altitude Azimuth Distance (km) Brightness Sun altitude
Rises 17:59:31 0° 174° (S) 3,216 6.3 -10.3°
Reaches altitude 10° 18:01:50 10° 177° (S) 2,295 5.6 -10.7°
Maximum altitude 18:06:51 63° 259° (WSW) 853 3.6 -11.5°
Drops below altitude 10° 18:11:54 10° 341° (NNW) 2,311 5.6 -12.4°
Sets 18:14:15 0° 344° (NNW) 3,241 6.3 -12.8°
